Theta_e
286 286 285 284 284 283 282 281 280 280 280 280 279 278 277 277 277 276 276 276 275 275 275 275 275 275 274 274 274 274 273 273 269 273 275 275 274 274 275 275 275 275 275
286 285 285 284 283 282 282 281 280 280 279 279 278 277 277 276 276 275 274 275 273 273 274 273 273 274 273 273 272 271 272 272 270 268 271 272 272 273 273 273 274 276 275
285 284 283 282 282 283 282 280 280 279 278 278 277 277 276 275 275 275 274 273 273 273 273 273 272 272 271 271 271 270 271 271 271 269 269 271 272 273 272 273 274 275 276
285 284 283 282 282 282 282 280 279 279 277 277 277 276 275 274 273 273 273 272 271 272 272 272 272 271 272 271 270 270 270 269 269 269 269 269 271 273 274 273 273 275 276
285 283 283 283 283 282 279 279 278 278 277 276 275 274 273 273 273 272 272 271 271 271 271 272 272 273 274 273 271 270 270 268 269 269 269 271 272 273 273 274 273 273 274
284 283 283 282 281 279 278 278 277 276 275 275 274 273 271 272 277 278 274 272 271 271 271 272 273 272 274 276 277 277 276 272 271 271 272 272 272 273 274 274 273 272 270
284 283 281 280 279 277 277 276 275 275 274 273 273 272 271 272 279 279 277 273 272 272 272 272 272 273 273 273 275 276 277 278 278 275 273 273 273 274 274 273 273 272 271
283 281 280 278 277 276 276 275 275 275 274 273 272 272 272 271 280 281 279 274 273 273 272 272 272 272 273 273 273 273 273 274 275 276 275 275 276 276 276 276 275 275 276
281 281 279 278 277 275 275 275 275 274 273 273 272 271 271 271 280 281 279 273 273 272 273 273 273 273 274 276 274 272 273 274 278 279 279 279 279 279 278 273 270 269 268
280 279 278 278 277 275 275 274 274 274 273 273 271 271 271 270 280 280 279 273 271 271 272 273 275 274 276 277 274 273 272 273 272 271 274 271 273 271 274 272 270 267 267
276 274 273 274 274 274 274 273 272 272 271 271 270 269 270 270 275 280 280 272 270 269 270 270 273 275 276 277 278 273 272 273 273 268 267 267 268 269 270 271 272 270 268
273 272 272 272 273 273 271 271 271 271 269 269 267 267 269 269 271 278 279 277 275 269 270 272 272 274 276 277 275 274 275 274 264 264 264 265 266 267 269 271 271 271 272
273 273 272 270 271 271 270 269 268 269 269 267 267 267 267 268 269 277 279 279 277 272 272 273 274 273 273 271 271 272 271 265 264 263 263 265 267 269 269 269 271 271 271
273 272 271 270 269 270 270 269 269 269 268 268 268 267 267 267 269 273 274 276 276 274 272 266 268 268 268 269 266 267 266 265 265 264 264 266 267 267 266 268 268 268 268
273 272 270 270 269 269 270 269 270 270 271 269 269 269 268 267 269 272 271 269 269 269 259 257 259 262 262 263 263 263 264 264 264 264 264 264 265 266 266 268 268 268 266
273 271 270 269 268 268 268 268 274 273 275 276 275 272 271 273 274 275 275 275 275 273 256 254 257 260 260 261 260 261 262 263 263 264 263 263 264 264 264 266 268 267 265
274 272 270 269 268 267 267 266 266 272 275 276 276 275 274 274 276 277 277 277 275 267 255 253 254 257 258 259 259 260 260 261 263 262 263 262 263 263 264 265 267 266 265
275 274 270 269 267 267 267 267 268 268 269 271 276 274 276 277 278 277 276 273 264 259 253 251 252 253 255 257 257 258 258 259 260 261 261 261 262 263 263 265 266 264 264
274 273 270 268 267 267 268 268 268 269 270 270 271 274 276 278 277 276 272 260 258 256 252 253 252 253 254 254 254 254 254 256 258 258 259 260 262 262 264 265 265 265 265
274 273 269 267 267 266 267 268 269 269 269 269 269 270 272 272 266 261 258 257 256 255 255 252 252 250 250 250 250 250 253 255 256 258 259 261 262 263 265 265 265 264 264
272 270 267 267 266 266 267 267 268 268 267 268 267 267 269 265 260 258 256 256 255 254 254 252 250 249 249 248 248 248 251 255 256 258 259 261 262 264 265 265 264 264 264
268 266 266 266 266 266 266 267 266 266 266 263 264 268 270 262 259 257 257 255 254 253 252 249 249 248 249 248 247 249 252 253 255 258 259 260 262 265 264 264 264 264 263
266 265 265 265 266 266 265 265 264 264 263 263 265 266 260 259 258 257 256 253 253 253 251 249 249 250 250 248 249 251 252 253 255 258 258 260 264 264 263 262 263 263 263
264 264 263 264 264 264 264 263 263 263 263 262 262 259 258 257 256 255 254 253 252 250 248 248 249 249 249 249 248 250 252 253 255 258 260 263 264 264 263 262 262 263 263
262 262 262 262 261 261 261 261 261 261 260 259 258 257 256 255 254 253 252 252 251 250 250 249 248 248 248 248 249 249 252 255 256 261 265 264 264 263 262 262 262 262 263
260 260 260 260 260 260 259 258 258 258 258 257 256 255 255 254 254 253 252 251 250 250 249 248 248 248 248 249 250 253 257 262 264 268 266 265 264 263 262 262 262 262 262
Wind_Speed
15 15 14 14 14 11 12 12 13 13 14 15 15 14 12 11 9 8 7 7 7 7 5 5 4 4 3 2 3 3 4 4 9 8 2 8 12 13 12 12 13 14 13
16 15 16 13 14 15 14 14 14 15 14 15 15 15 13 12 10 10 9 8 9 8 7 6 5 4 5 4 4 5 6 6 5 18 11 10 13 14 15 16 13 13 14
12 14 13 14 15 17 15 15 15 15 14 14 16 16 14 13 12 9 9 8 8 7 8 8 7 7 6 5 5 5 5 6 6 9 17 10 12 13 16 15 15 16 13
14 15 17 17 18 17 15 15 16 16 17 16 15 14 14 13 12 11 10 9 8 7 7 7 7 7 8 6 6 6 6 5 7 10 14 15 13 13 13 15 16 13 13
17 16 19 17 15 13 14 15 15 15 15 16 15 13 13 12 10 12 11 10 10 9 7 8 7 9 12 10 6 7 7 7 7 10 13 15 15 13 14 14 18 17 15
16 19 15 13 15 16 15 16 15 14 14 14 14 15 14 10 21 23 15 11 10 10 8 8 8 8 11 13 14 15 12 8 10 10 11 15 21 17 14 15 17 18 24
17 14 14 15 16 16 16 16 17 17 15 14 14 14 14 12 24 24 22 11 10 8 8 7 7 6 7 7 12 14 16 20 22 16 18 17 23 18 20 22 20 20 22
12 11 12 15 15 14 15 16 16 16 18 16 15 15 14 12 27 27 25 11 9 10 8 8 7 6 7 8 9 9 12 13 14 13 15 17 19 17 19 20 22 21 20
12 14 15 16 16 16 17 17 15 15 14 15 14 14 13 11 25 25 21 10 10 9 9 8 7 7 11 13 9 9 11 13 14 22 28 32 32 33 32 19 17 17 21
7 6 7 10 12 15 14 14 12 12 12 10 12 11 12 12 26 25 18 8 9 8 7 8 10 12 15 14 8 9 10 10 10 14 11 14 20 19 29 16 13 16 16
4 6 6 9 10 10 11 10 11 11 11 11 11 10 12 12 14 24 23 9 8 7 6 5 5 11 12 15 17 6 7 13 13 8 10 11 12 13 12 12 14 14 17
5 6 6 7 8 9 12 10 12 12 12 11 11 9 8 9 11 21 22 19 16 7 7 6 6 10 11 15 13 15 17 14 5 8 9 11 11 11 11 13 16 17 17
4 6 7 6 5 9 11 11 10 12 11 11 11 11 10 9 9 22 25 23 21 9 7 10 11 5 8 9 11 15 10 4 6 8 10 11 12 13 17 17 17 19 21
7 7 9 9 10 10 9 9 10 11 11 12 12 10 10 10 10 10 9 11 14 8 8 4 2 2 3 5 5 8 6 6 7 9 11 12 13 13 13 14 16 15 16
8 8 9 8 13 12 10 12 14 16 17 16 14 13 14 12 13 17 13 6 3 7 6 3 2 2 2 4 3 6 6 6 7 8 10 12 13 13 14 14 15 16 17
10 8 8 10 10 9 9 8 20 17 23 24 23 16 9 11 23 26 23 20 18 15 3 2 1 1 2 4 5 6 6 7 7 9 10 12 13 14 15 15 15 15 17
13 10 8 9 8 9 10 12 10 13 23 24 21 21 21 22 31 26 24 21 17 9 3 2 2 2 3 5 5 5 7 7 9 9 10 12 13 14 17 15 16 15 17
15 16 11 10 11 11 10 10 10 13 13 11 20 21 27 29 26 23 23 18 8 4 3 3 3 2 3 5 5 5 6 7 8 10 11 12 12 13 15 16 16 18 18
13 10 10 8 9 10 10 11 11 12 12 13 13 20 24 28 27 24 20 6 6 4 3 3 3 2 4 6 5 4 7 7 9 11 11 12 12 13 15 16 17 23 24
13 14 11 9 9 11 11 11 11 13 13 14 13 14 14 18 9 8 5 5 5 4 4 3 3 2 5 6 4 5 6 7 9 10 12 12 12 13 15 18 18 19 18
8 8 12 9 9 10 11 12 12 12 13 12 12 10 16 12 12 10 8 6 5 4 4 4 2 2 5 5 5 4 5 8 9 11 11 12 13 14 15 17 18 18 18
6 7 8 8 8 10 10 10 11 12 12 13 12 15 24 9 9 8 7 6 5 4 3 3 1 4 6 6 4 3 7 8 9 10 12 12 13 14 15 17 18 18 18
6 8 7 7 8 11 10 10 11 11 12 12 13 12 10 8 8 8 7 5 4 3 2 2 3 4 6 6 3 6 8 9 10 11 12 14 13 14 15 17 18 18 18
6 7 7 7 7 8 9 9 9 13 13 12 10 9 9 8 8 8 6 5 3 2 1 2 3 6 7 6 5 6 8 10 9 11 15 14 13 16 16 17 18 22 19
7 7 7 8 8 8 10 9 10 11 11 10 9 8 8 7 7 6 4 3 2 1 2 2 3 6 9 11 11 12 13 17 13 16 12 11 14 17 16 16 18 19 22
8 8 7 7 8 8 9 10 9 10 10 9 8 8 8 7 6 5 4 3 2 1 3 3 4 9 11 10 11 13 16 17 15 19 9 10 11 13 14 18 23 18 21
Wind_Direction
193 192 191 198 189 182 182 177 173 166 169 173 170 164 168 171 171 168 171 176 156 137 131 141 161 156 174 180 235 245 253 249 274 285 330 314 311 306 306 301 298 297 294
195 194 199 192 186 183 189 181 170 172 172 170 168 167 170 170 172 174 171 176 157 155 153 155 170 186 204 205 215 245 255 258 275 294 301 302 306 305 300 302 299 293 290
195 192 192 193 193 200 190 176 172 168 170 168 173 172 171 171 171 174 169 174 166 159 159 171 177 182 213 217 215 237 251 269 281 286 294 304 299 305 307 298 291 286 278
193 197 198 196 199 197 185 178 176 174 170 174 177 170 173 166 167 167 170 168 159 163 167 175 184 201 213 210 212 231 247 249 265 274 285 295 298 300 289 295 292 286 290
199 201 206 198 191 191 181 174 173 174 175 174 166 172 169 167 169 171 176 168 160 162 178 190 194 210 218 209 204 217 233 242 248 267 279 288 293 297 296 300 291 294 287
201 208 200 185 177 184 175 172 170 171 170 172 177 172 168 173 183 186 172 162 167 172 182 196 210 207 229 238 251 258 248 242 256 261 275 285 287 290 292 293 292 294 296
203 202 186 177 180 180 172 169 174 176 166 175 175 171 171 173 187 185 178 166 164 172 186 201 209 214 212 230 248 260 270 277 276 280 280 280 290 293 295 290 281 279 277
200 188 176 181 182 170 173 180 176 172 174 174 176 179 174 180 187 184 178 167 163 172 192 202 211 224 233 239 253 250 256 253 256 265 270 280 279 281 276 283 285 276 275
194 191 187 182 179 173 179 184 177 170 175 178 176 174 173 180 188 185 176 161 162 181 200 205 210 228 236 254 260 261 266 266 273 282 286 289 291 297 296 297 287 291 288
198 188 171 178 179 179 179 178 175 175 172 173 165 172 169 174 188 188 173 161 172 179 192 207 215 229 241 259 265 262 273 288 292 283 284 296 295 290 289 280 283 281 280
109 118 145 160 166 165 164 166 161 163 157 173 160 159 158 172 191 189 183 179 174 179 180 204 202 239 261 270 277 288 279 288 299 316 295 286 284 282 279 271 270 273 280
120 125 144 150 152 156 156 153 156 161 160 162 156 151 164 173 181 190 195 185 185 169 189 192 201 240 261 289 294 297 292 309 323 296 288 286 284 284 284 281 277 272 266
145 147 151 127 153 155 157 157 161 166 169 170 174 167 171 176 180 194 196 192 190 168 177 184 210 240 288 302 295 299 313 300 282 283 283 285 285 289 293 285 277 280 278
211 182 152 162 169 166 160 167 171 183 182 176 179 183 172 169 173 185 186 186 191 164 153 97 80 359 285 285 307 306 289 280 283 283 285 289 292 292 293 288 295 296 290
220 195 177 193 178 181 192 187 189 194 191 179 184 172 171 181 183 176 166 144 133 137 102 64 63 59 315 287 275 275 278 288 289 288 292 296 296 297 298 294 291 297 292
215 210 205 182 192 193 186 184 214 209 207 202 185 173 170 179 172 170 164 165 174 151 59 117 112 149 253 286 279 289 291 297 296 298 294 293 293 295 296 295 290 297 294
231 215 196 193 199 194 184 176 177 210 199 195 187 175 161 161 163 168 166 162 138 129 105 118 170 188 268 271 270 270 289 295 296 290 287 288 289 290 301 293 302 300 296
232 222 204 192 190 184 191 186 172 167 184 181 178 162 158 160 164 160 150 138 130 109 117 154 198 171 256 263 271 288 289 295 298 295 288 287 287 295 297 302 305 304 300
230 222 198 191 191 183 171 179 173 172 173 153 152 154 154 155 157 147 136 132 157 139 142 174 195 196 261 261 261 277 271 289 293 290 283 285 291 302 298 306 303 305 302
240 222 188 179 174 174 175 173 173 164 164 160 156 157 151 152 137 123 113 136 136 147 149 182 201 178 255 258 267 258 282 295 292 286 289 292 295 294 310 309 307 308 305
223 192 174 173 173 173 170 172 166 161 159 156 145 153 153 139 137 140 143 150 155 159 159 185 166 229 258 260 251 249 278 284 286 286 288 293 299 308 316 309 307 306 306
161 160 164 164 158 163 165 160 155 156 154 137 146 159 141 132 131 133 142 151 158 156 165 150 202 236 260 253 237 274 276 281 285 288 294 295 296 318 316 312 310 310 310
133 141 142 147 155 156 155 152 153 155 144 146 149 147 134 134 138 142 145 143 150 159 157 153 224 269 258 251 235 245 264 274 279 288 293 299 304 321 319 314 313 313 315
97 111 121 120 127 136 139 139 140 142 137 136 129 130 132 138 137 135 140 142 149 164 180 226 234 253 274 276 256 255 254 267 272 283 288 290 312 319 317 315 314 315 315
81 94 104 113 116 118 120 125 127 126 124 122 126 124 123 124 124 121 124 134 145 186 263 259 247 265 272 275 276 275 277 285 283 292 291 305 308 313 315 316 317 319 320
80 85 89 99 109 116 121 119 117 119 118 119 118 120 129 130 126 128 141 146 167 243 271 264 278 277 277 278 277 281 289 293 303 314 312 318 313 317 320 321 324 324 325